Location: Bottenau
(48.5138°N, 8.0462°E)
Time: 16:09:39
(UTC+00:00)

COSMOS 2428 - Pass Details

Date: 18 April 2021
Orbit: 844 x 859 km, 70.9° (Epoch: 06 May)

Event Time Altitude Azimuth Distance (km) Brightness Sun altitude
Rises 20:37:53 0° 323° (NW) 3,443 7.5 -19.6°
Reaches altitude 10° 20:40:40 10° 312° (NW) 2,502 6.4 -20.0°
Maximum altitude 20:45:25 27° 257° (WSW) 1,584 4.4 -20.5°
Enters shadow 20:49:50 11° 203° (SSW) 2,392 4.8 -21.0°
